Tracking 19563 objects as of 20-Mar-2019
HD Live streaming from Space Station
objects crossing your sky now

SJ-4

Track SJ-4 now!
10-day predictions
SJ-4 is classified as:


NORAD ID: 22996
Int'l Code: 1994-010A
Perigee: 283.7 km
Apogee: 17,458.7 km
Inclination: 28.9 °
Period: 312.1 minutes
Semi major axis: 15242 km
RCS: 3.0001 m2 (large)
Launch date: February 8, 1994
Source: People's Republic of China (PRC)
Launch site: Xichang Space Center, China (XSC)
aabbcc
Your satellite tracking list
Your tracking list is empty




NASA's NSSDC Master Catalog

Two Line Element Set (TLE):
1 22996U 94010A   19078.38136238 +.00000381 +00000-0 +86970-4 0  9997
2 22996 028.8745 060.0055 5634027 120.7147 306.5612 04.61350701324873
Source of the keplerian elements: AFSPC